User: anonymous   Login
Location: Unspecified
(0.0000°N, 0.0000°E)
Time: 03:38:21
(UTC+00:00)
Language:

OPTUS 1C - Orbit

View from above orbital plane
View from above orbital plane
View from above satellite
View from above satellite

Ground track
Ground track

The orbit data is extracted from the following two-line orbital elements,

1 27831U 03028B   16180.53549317 -.00000155  00000-0  00000+0 0  9998
2 27831   0.0395 199.0836 0003382 278.3109 148.4498  1.00271259 47817
Epoch (UTC): 28 June 2016 12:51:06
Eccentricity: 0.0003382
inclination: 0.0395°
perigee height: 35772 km
apogee height: 35800 km
right ascension of ascending node: 199.0836°
argument of perigee: 278.3109°
revolutions per day: 1.00271259
mean anomaly at epoch: 148.4498°
orbit number at epoch: 4781

The dashed part of the orbit path shows where the satellite is in the earth's shadow,  

DLR